FW9575 Weather Reports


time (UTC)temp
C
wind
direction
speed
KPH
gust
KPH
rain 1hr
cm
rain 24hr
cm
rain mn
cm
humidity
%
barometer
mb
20260504234817 22 45 6.4 12.9 0.00 0.00 0.00 30 1002.4
20260504234315 22 58 9.7 17.7 0.00 0.00 0.00 29 1002.5
20260504233811 22 345 3.2 16.1 0.00 0.00 0.00 29 1002.6
20260504233307 22 15 3.2 9.7 0.00 0.00 0.00 30 1002.5
20260504232804 22 356 8.0 12.9 0.00 0.00 0.00 30 1001.9
20260504232303 22 38 4.8 12.9 0.00 0.00 0.00 30 1002.3
20260504231758 22 23 4.8 20.9 0.00 0.00 0.00 30 1002.4
20260504231254 22 42 4.8 11.3 0.00 0.00 0.00 29 1002.4
20260504230750 22 22 4.8 16.1 0.00 0.00 0.00 29 1002.1
20260504230248 23 25 8.0 12.9 0.00 0.00 0.00 28 1002.1
20260504225747 23 35 9.7 14.5 0.00 0.00 0.00 28 1002.1
20260504225243 23 11 9.7 17.7 0.00 0.00 0.00 28 1002.3
20260504224740 23 340 3.2 12.9 0.00 0.00 0.00 28 1001.9
20260504224237 24 339 9.7 30.6 0.00 0.00 0.00 27 1001.8
20260504223733 23 20 4.8 14.5 0.00 0.00 0.00 28 1001.7
20260504223229 25 12 3.2 20.9 0.00 0.00 0.00 28 1001.6
20260504222727 25 358 3.2 11.3 0.00 0.00 0.00 27 1001.4
20260504222223 25 46 4.8 17.7 0.00 0.00 0.00 27 1001.0
20260504221721 24 5 4.8 9.7 0.00 0.00 0.00 27 1000.9
20260504221218 24 21 6.4 14.5 0.00 0.00 0.00 27 1000.9
20260504220714 24 35 4.8 17.7 0.00 0.00 0.00 26 1000.9
20260504220212 25 357 4.8 8.0 0.00 0.00 0.00 27 1000.9
20260504215708 25 20 3.2 9.7 0.00 0.00 0.00 28 1000.9
20260504215206 25 287 3.2 14.5 0.00 0.00 0.00 27 1000.8
20260504214701 26 26 4.8 12.9 0.00 0.00 0.00 28 1000.5
20260504214158 26 352 8.0 17.7 0.00 0.00 0.00 27 1000.3
20260504213654 26 339 8.0 32.2 0.00 0.00 0.00 27 1000.3
20260504213151 27 35 6.4 12.9 0.00 0.00 0.00 27 1000.2
20260504212647 26 73 3.2 11.3 0.00 0.00 0.00 29 1000.2
20260504212144 26 325 3.2 14.5 0.00 0.00 0.00 28 1000.2
20260504211642 27 64 3.2 14.5 0.00 0.00 0.00 30 1000.2
20260504211138 26 62 9.7 11.3 0.00 0.00 0.00 28 1000.4
20260504210636 26 358 14.5 14.5 0.00 0.00 0.00 30 1000.2
20260504210132 27 26 3.2 17.7 0.00 0.00 0.00 31 1000.2
20260504205630 26 323 14.5 22.5 0.00 0.00 0.00 29 1000.1
20260504205127 26 19 3.2 19.3 0.00 0.00 0.00 31 1000.3
20260504204625 26 347 3.2 17.7 0.00 0.00 0.00 30 1000.2
20260504204124 26 351 4.8 16.1 0.00 0.00 0.00 31 1000.2
20260504203622 26 351 0.0 16.1 0.00 0.00 0.00 31 1000.3
20260504203119 27 339 8.0 11.3 0.00 0.00 0.00 29 1000.4
20260504202614 27 8 3.2 14.5 0.00 0.00 0.00 30 1000.1
20260504202111 27 347 4.8 12.9 0.00 0.00 0.00 29 999.9
20260504201608 27 297 3.2 11.3 0.00 0.00 0.00 30 1000.0
20260504201106 27 11 4.8 16.1 0.00 0.00 0.00 28 1000.0
20260504200603 27 342 4.8 16.1 0.00 0.00 0.00 29 1000.1
20260504200059 28 311 3.2 8.0 0.00 0.00 0.00 28 1000.1
20260504195555 27 33 3.2 19.3 0.00 0.00 0.00 28 1000.1
20260504195052 27 342 9.7 16.1 0.00 0.00 0.00 27 999.9
20260504194548 28 352 4.8 11.3 0.00 0.00 0.00 27 1000.0
20260504194044 28 7 0.0 14.5 0.00 0.00 0.00 28 1000.0
20260504193541 28 56 0.0 9.7 0.00 0.00 0.00 26 999.9
20260504193039 28 354 4.8 16.1 0.00 0.00 0.00 26 999.9
20260504192537 28 271 11.3 16.1 0.00 0.00 0.00 26 999.9
20260504192035 28 294 6.4 12.9 0.00 0.00 0.00 26 999.8
20260504191533 28 6 4.8 12.9 0.00 0.00 0.00 26 999.9
20260504191029 28 335 3.2 14.5 0.00 0.00 0.00 27 999.9
20260504190525 28 335 6.4 9.7 0.00 0.00 0.00 26 999.8
20260504190021 28 290 9.7 12.9 0.00 0.00 0.00 25 999.8
20260504185518 28 346 4.8 12.9 0.00 0.00 0.00 25 999.8
20260504185015 28 279 8.0 25.7 0.00 0.00 0.00 24 999.7
20260504184510 28 6 4.8 22.5 0.00 0.00 0.00 26 999.8
20260504184006 28 336 3.2 14.5 0.00 0.00 0.00 26 999.8
20260504183503 27 276 6.4 25.7 0.00 0.00 0.00 26 999.9
20260504183002 28 338 4.8 9.7 0.00 0.00 0.00 25 999.9
20260504182458 28 286 4.8 14.5 0.00 0.00 0.00 26 999.7
20260504181955 28 317 6.4 14.5 0.00 0.00 0.00 23 999.7
20260504181452 27 311 4.8 16.1 0.00 0.00 0.00 24 999.9
20260504180950 27 313 3.2 37.0 0.00 0.00 0.00 24 999.8
20260504180449 28 331 6.4 20.9 0.00 0.00 0.00 24 999.7
20260504175947 27 48 1.6 12.9 0.00 0.00 0.00 23 999.6
20260504175444 27 340 3.2 16.1 0.00 0.00 0.00 24 999.9
20260504174941 27 283 16.1 22.5 0.00 0.00 0.00 24 999.7
20260504174439 27 11 0.0 11.3 0.00 0.00 0.00 24 999.8
20260504173936 27 300 6.4 20.9 0.00 0.00 0.00 24 999.9
20260504173432 27 331 1.6 14.5 0.00 0.00 0.00 24 999.9
20260504172930 27 317 8.0 22.5 0.00 0.00 0.00 24 1000.0
20260504172426 27 233 3.2 12.9 0.00 0.00 0.00 25 1000.2
20260504171922 27 275 11.3 20.9 0.00 0.00 0.00 26 1000.3
20260504171420 27 344 4.8 17.7 0.00 0.00 0.00 26 1000.1
20260504170917 26 306 4.8 20.9 0.00 0.00 0.00 27 1000.6
20260504170413 26 311 0.0 12.9 0.00 0.00 0.00 29 1000.2
20260504160332 22 246 4.8 16.1 0.00 0.00 0.00 38 1000.8
20260504150756 20 281 4.8 8.0 0.00 0.00 0.00 46 1000.8
20260504150253 19 331 4.8 9.7 0.00 0.00 0.00 48 1001.0
20260504141223 17 0 4.8 8.0 0.00 0.00 0.00 53 1001.1
20260504140720 16 357 1.6 8.0 0.00 0.00 0.00 54 1001.2
20260504140215 16 276 1.6 6.4 0.00 0.00 0.00 54 1001.4
20260504130644 13 351 3.2 6.4 0.00 0.00 0.00 61 1000.9
20260504130140 13 341 3.2 6.4 0.00 0.00 0.00 62 1000.9
20260504120104 10 350 3.2 6.4 0.00 0.00 0.00 72 1000.2
20260504110531 11 338 3.2 4.8 0.00 0.00 0.00 68 1000.1
20260504100448 13 338 4.8 4.8 0.00 0.00 0.00 57 1000.3
20260504081841 16 113 3.2 4.8 0.00 0.00 0.00 43 1001.6
20260504081338 16 104 1.6 4.8 0.00 0.00 0.00 43 1001.7
20260504080833 16 67 1.6 4.8 0.00 0.00 0.00 43 1001.8
20260504080331 16 74 3.2 3.2 0.00 0.00 0.00 43 1001.7
20260504070258 16 102 0.0 3.2 0.00 0.00 0.00 42 1003.3
20260504060218 16 96 1.6 4.8 0.00 0.00 0.00 42 1004.3
20260504050646 16 103 1.6 4.8 0.00 0.00 0.00 42 1004.6
20260504050143 16 86 1.6 3.2 0.00 0.00 0.00 42 1004.6
20260504045640 17 18 0.0 3.2 0.00 0.00 0.00 42 1004.7
20260504045140 17 19 1.6 3.2 0.00 0.00 0.00 41 1004.7
20260504044638 17 63 0.0 3.2 0.00 0.00 0.00 41 1004.7
20260504044135 17 96 1.6 4.8 0.00 0.00 0.00 41 1004.9
20260504043632 17 103 1.6 3.2 0.00 0.00 0.00 40 1005.0
20260504043129 17 101 1.6 3.2 0.00 0.00 0.00 41 1005.0
20260504042626 17 102 3.2 3.2 0.00 0.00 0.00 41 1005.1
20260504042123 17 91 3.2 3.2 0.00 0.00 0.00 41 1005.1
20260504041619 17 108 0.0 3.2 0.00 0.00 0.00 40 1005.1
20260504041115 17 96 0.0 3.2 0.00 0.00 0.00 40 1005.4
20260504040613 17 106 0.0 3.2 0.00 0.00 0.00 40 1005.5
20260504040109 18 77 3.2 8.0 0.00 0.00 0.00 40 1005.4
20260504035606 17 96 1.6 3.2 0.00 0.00 0.00 40 1005.2
20260504035102 17 103 3.2 3.2 0.00 0.00 0.00 40 1005.5
20260504034600 18 57 0.0 3.2 0.00 0.00 0.00 40 1005.6
20260504034057 18 87 1.6 3.2 0.00 0.00 0.00 39 1005.7
20260504033555 17 84 1.6 3.2 0.00 0.00 0.00 40 1005.7
20260504033052 17 57 0.0 1.6 0.00 0.00 0.00 40 1005.6
20260504032549 18 21 0.0 1.6 0.00 0.00 0.00 40 1005.6
20260504032046 17 101 0.0 3.2 0.00 0.00 0.00 40 1005.6
20260504031543 18 78 1.6 3.2 0.00 0.00 0.00 41 1005.6
20260504031039 18 50 0.0 1.6 0.00 0.00 0.00 41 1005.3
20260504030536 18 43 0.0 1.6 0.00 0.00 0.00 41 1005.7
20260504030032 18 58 0.0 3.2 0.00 0.00 0.00 41 1005.7
20260504025530 18 65 0.0 3.2 0.00 0.00 0.00 40 1005.7
20260504025026 18 94 0.0 1.6 0.00 0.00 0.00 39 1005.7
20260504024523 18 28 0.0 1.6 0.00 0.00 0.00 39 1005.6
20260504024020 19 89 0.0 3.2 0.00 0.00 0.00 38 1005.6
20260504023517 19 98 3.2 3.2 0.00 0.00 0.00 38 1005.7
20260504023013 19 100 3.2 3.2 0.00 0.00 0.00 39 1005.6
20260504022508 19 57 0.0 1.6 0.00 0.00 0.00 38 1005.7
20260504022005 19 39 3.2 3.2 0.00 0.00 0.00 38 1005.7
20260504021503 19 37 1.6 3.2 0.00 0.00 0.00 38 1005.9
20260504021000 19 0 0.0 1.6 0.00 0.00 0.00 38 1006.1
20260504020456 20 50 0.0 3.2 0.00 0.00 0.00 37 1005.8
20260504015953 20 6 0.0 3.2 0.00 0.00 0.00 37 1006.1
20260504015449 20 27 0.0 3.2 0.00 0.00 0.00 36 1005.9
20260504014945 20 24 0.0 1.6 0.00 0.00 0.00 37 1006.1
20260504014441 20 24 0.0 0.0 0.00 0.00 0.00 36 1006.1
20260504013938 20 39 1.6 3.2 0.00 0.00 0.00 36 1005.9
20260504013437 20 27 0.0 1.6 0.00 0.00 0.00 36 1005.9
20260504012932 20 112 0.0 1.6 0.00 0.00 0.00 35 1005.8
20260504012431 20 24 0.0 1.6 0.00 0.00 0.00 35 1006.0
20260504011928 21 24 0.0 3.2 0.00 0.00 0.00 35 1005.9
20260504011425 21 16 0.0 3.2 0.00 0.00 0.00 35 1005.7
20260504010920 21 29 0.0 3.2 0.00 0.00 0.00 34 1005.9
20260504010416 21 35 0.0 3.2 0.00 0.00 0.00 33 1006.1
20260504005913 21 19 0.0 1.6 0.00 0.00 0.00 33 1006.1
20260504005410 22 31 0.0 1.6 0.00 0.00 0.00 33 1006.4
20260504004908 22 12 0.0 1.6 0.00 0.00 0.00 32 1006.3
20260504004405 22 8 0.0 3.2 0.00 0.00 0.00 31 1006.4
20260504003901 22 33 1.6 3.2 0.00 0.00 0.00 31 1006.5
20260504003358 22 38 1.6 1.6 0.00 0.00 0.00 31 1006.4
20260504002855 23 9 1.6 3.2 0.00 0.00 0.00 30 1006.5
20260504002351 23 15 1.6 3.2 0.00 0.00 0.00 29 1006.4
20260504001849 23 12 0.0 4.8 0.00 0.00 0.00 29 1006.5
20260504001346 23 63 0.0 6.4 0.00 0.00 0.00 28 1006.5
20260504000843 24 6 0.0 3.2 0.00 0.00 0.00 27 1006.6
20260504000340 25 336 1.6 3.2 0.00 0.00 0.00 28 1006.6
20260503235838 24 32 3.2 6.4 0.00 0.00 0.00 27 1006.8
20260503235335 25 351 1.6 3.2 0.00 0.00 0.00 27 1007.0